(225088) Gonggong
ephemeris date magn radius delta ra dec elong phase
Opposition28 Aug 202521.389.631 AU88.621 AU22h29m-10°24'179.1°0.0°
Today20 Oct 202521.589.662 AU89.040 AU22h28m-10°32'128.4°0.5°
(225088) Gonggong - 2025-10-20
astro.vanbuitenen.nl


 
-1 year
-1 month
-1 day
Now
+1 day
+1 month
+1 year

The interactive orbit chart above shows the body's path through the solar system and its position at the given date. Green and blue lines are shown perpendicular to the ecliptic plane: Green if the path is above the ecliptic plane, blue if it is below. (Left-click and drag to rotate the view; Right-click and drag to move the view; Use scroll wheel to zoom in our out.)

The orbital elements of Gonggong are:

            e (Eccentricity)                : 0.5019951
            a (Semimajor axis)              : 66.9464643
            i (Inclination)                 : 30.82492
            Ω (Longitude of ascending node) : 336.84258
            ω (Argument of perihelion)      : 206.70820
            M (Mean anomaly)                : 111.02609
            Epoch                           : 2025 May 05

            L (Longitude of perihelion)     : 0.20952
            B (Latitude of perihelion)      : -13.31497
            P (Orbital period in years)     : 547.76            
        

The light curve chart below shows the estimated development of the minor planet's magnitude.


The all-sky chart below shows the path of the minor planet over the same period as the light curve. The current position is marked yellow.





The following chart shows the path of the minor planet in the next few days. The field of view is optimized for (~10x50) binoculars and finderscopes.




Ephemerides:
Date       Time       RA (2000)    DEC (2000)    delta   radius  elong  phase   PA    magn
2025-10-20 00:00 UT   22 28 11.2   -10 32 43    89.040   89.662  128.4    0.5    68   21.5 
2025-10-20 20:04 UT   22 28 10.0   -10 32 48    89.052   89.662  127.5    0.5    68   21.5 
2025-10-21 00:00 UT   22 28 09.8   -10 32 49    89.054   89.662  127.4    0.5    68   21.5 
2025-10-22 00:00 UT   22 28 08.4   -10 32 55    89.069   89.663  126.4    0.5    68   21.5 
2025-10-23 00:00 UT   22 28 07.1   -10 33 00    89.084   89.664  125.4    0.5    68   21.5 
2025-10-24 00:00 UT   22 28 05.8   -10 33 05    89.099   89.664  124.4    0.5    68   21.5 
2025-10-25 00:00 UT   22 28 04.6   -10 33 10    89.114   89.665  123.4    0.5    68   21.5 
2025-10-26 00:00 UT   22 28 03.3   -10 33 15    89.129   89.665  122.4    0.5    68   21.5 
2025-10-27 00:00 UT   22 28 02.2   -10 33 20    89.144   89.666  121.4    0.5    68   21.5 
2025-10-28 00:00 UT   22 28 01.0   -10 33 24    89.160   89.666  120.4    0.5    68   21.5 
2025-10-29 00:00 UT   22 27 59.9   -10 33 28    89.176   89.667  119.4    0.6    68   21.5 
2025-10-30 00:00 UT   22 27 58.8   -10 33 32    89.191   89.668  118.4    0.6    68   21.5 
2025-10-31 00:00 UT   22 27 57.8   -10 33 36    89.207   89.668  117.3    0.6    68   21.5 
2025-11-01 00:00 UT   22 27 56.8   -10 33 39    89.224   89.669  116.3    0.6    68   21.5 
2025-11-02 00:00 UT   22 27 55.9   -10 33 42    89.240   89.669  115.3    0.6    68   21.5 
2025-11-03 00:00 UT   22 27 55.0   -10 33 45    89.256   89.670  114.3    0.6    68   21.5 
2025-11-04 00:00 UT   22 27 54.1   -10 33 48    89.273   89.671  113.3    0.6    68   21.5 
2025-11-05 00:00 UT   22 27 53.3   -10 33 50    89.289   89.671  112.3    0.6    68   21.5 
2025-11-06 00:00 UT   22 27 52.5   -10 33 53    89.306   89.672  111.3    0.6    68   21.5 
2025-11-07 00:00 UT   22 27 51.7   -10 33 55    89.323   89.672  110.3    0.6    68   21.5 
2025-11-08 00:00 UT   22 27 51.0   -10 33 56    89.340   89.673  109.3    0.6    68   21.5 
2025-11-09 00:00 UT   22 27 50.4   -10 33 58    89.357   89.673  108.3    0.6    68   21.5 
2025-11-10 00:00 UT   22 27 49.7   -10 33 59    89.374   89.674  107.3    0.6    68   21.5 
2025-11-11 00:00 UT   22 27 49.1   -10 34 00    89.392   89.675  106.3    0.6    68   21.5 
2025-11-12 00:00 UT   22 27 48.6   -10 34 01    89.409   89.675  105.3    0.6    68   21.5 
2025-11-13 00:00 UT   22 27 48.1   -10 34 02    89.426   89.676  104.3    0.6    68   21.5 
2025-11-14 00:00 UT   22 27 47.7   -10 34 02    89.444   89.676  103.3    0.6    68   21.5 
2025-11-15 00:00 UT   22 27 47.2   -10 34 02    89.461   89.677  102.3    0.6    68   21.5 
2025-11-16 00:00 UT   22 27 46.9   -10 34 02    89.479   89.678  101.3    0.6    68   21.5 
2025-11-17 00:00 UT   22 27 46.5   -10 34 01    89.497   89.678  100.2    0.6    68   21.5 
2025-11-18 00:00 UT   22 27 46.3   -10 34 00    89.514   89.679   99.2    0.6    68   21.5 
2025-11-19 00:00 UT   22 27 46.0   -10 33 59    89.532   89.679   98.2    0.6    68   21.5 


    Terminology:
            
    delta:  distance between minor planet and earth in AU
    radius: distance between minor planet and sun in AU
    magn:   magnitude (brightness) estimate    
    ra:     right ascension in hours (24h = 360deg)
    dec:    declination in degrees
    elong:  elongation in degrees (angle sun-earth-minor planet)    
    phase:  phase angle in degrees (angle sun-minor planet-earth)        
    AU:     Astronomical Unit (mean distance between earth and sun: 149597870.7 km
    

Orbital elements provided by the MPC (Minor Planet Center).
Calculations by a modified version of AAPlus, a C# implementation of the AA+ project by PJ Naughter from the algorithms presented in the book "Astronomical Algorithms" by Jean Meeus.
NGC2000 dso catalog and star labels from VizieR as provided by the Strasbourg astronomical Data Center.
Tycho2 catalog from the ESO archive.